Location: Unspecified
(33.9239°N, 118.0544°W)
Time: 18:59:22
(UTC-07:00)

Cosmos 1674 - Visible Passes

Search period start: 30 May 2016 00:00
Search period end: 09 June 2016 00:00
Orbit: 501 x 526 km, 82.5° (Epoch: 30 May)

Date Brightness Start Highest point End Pass type
(mag) Time Alt. Az. Time Alt. Az. Time Alt. Az.
30 May 5.9 00:45:01 10° NNE 00:45:01 10° NNE 00:45:04 10° NNE visible
02 Jun 5.8 01:32:55 11° NNW 01:32:55 11° NNW 01:33:07 10° NNW visible
03 Jun 5.8 01:17:12 12° NNW 01:17:12 12° NNW 01:17:37 10° NNW visible
04 Jun 5.7 01:01:29 14° NNW 01:01:29 14° NNW 01:02:03 10° NNW visible
05 Jun 5.7 00:45:44 15° N 00:45:44 15° N 00:46:26 10° N visible
06 Jun 5.6 00:29:59 16° N 00:29:59 16° N 00:30:46 10° N visible
07 Jun 5.5 00:14:13 16° N 00:14:13 16° N 00:15:03 10° N visible
07 Jun 5.4 23:58:25 16° NNE 23:58:25 16° NNE 23:59:18 10° N visible
08 Jun 5.3 23:42:38 16° NNE 23:42:38 16° NNE 23:43:31 10° NNE visible
